Time,TemperatureF,DewpointF,PressureIn,WindDirection,WindDirectionDegrees,WindSpeedMPH,WindSpeedGustMPH,Humidity,HourlyPrecipIn,Conditions,Clouds,dailyrainin,SolarRadiationWatts/m^2,SoftwareType,DateUTC
2013-05-29 00:02:00,57.0,56.0,-100.00,SSW,200,4.0,6.0,95,0.00,,,0.00,0.000000,,2013-05-29 05:02:00,
2013-05-29 00:33:00,57.0,55.0,-100.00,South,187,3.0,7.0,94,0.00,,,0.00,0.000000,,2013-05-29 05:33:00,
2013-05-29 00:42:00,57.0,55.0,-100.00,South,187,3.0,7.0,94,0.00,,,0.00,0.000000,,2013-05-29 05:42:00,
2013-05-29 00:52:00,57.0,55.0,-100.00,South,187,3.0,7.0,94,0.00,,,0.00,0.000000,,2013-05-29 05:52:00,
2013-05-29 01:01:00,57.0,55.0,-100.00,South,187,3.0,7.0,94,0.00,,,0.00,0.000000,,2013-05-29 06:01:00,
2013-05-29 01:32:00,57.0,56.0,-100.00,South,174,3.0,6.0,95,0.00,,,0.00,0.000000,,2013-05-29 06:32:00,
2013-05-29 01:42:00,57.0,56.0,-100.00,South,174,3.0,6.0,95,0.00,,,0.00,0.000000,,2013-05-29 06:42:00,
2013-05-29 01:52:00,57.0,56.0,-100.00,South,174,3.0,6.0,95,0.00,,,0.00,0.000000,,2013-05-29 06:52:00,
2013-05-29 02:01:00,57.0,56.0,-100.00,South,174,3.0,6.0,95,0.00,,,0.00,0.000000,,2013-05-29 07:01:00,
2013-05-29 02:34:00,57.0,55.0,-100.00,SW,230,3.0,6.0,94,0.00,,,0.00,0.000000,,2013-05-29 07:34:00,
2013-05-29 02:42:00,57.0,55.0,-100.00,SW,230,3.0,6.0,94,0.00,,,0.00,0.000000,,2013-05-29 07:42:00,
2013-05-29 02:52:00,57.0,55.0,-100.00,SW,230,3.0,6.0,94,0.00,,,0.00,0.000000,,2013-05-29 07:52:00,
2013-05-29 03:02:00,57.0,55.0,-100.00,SW,230,3.0,6.0,94,0.00,,,0.00,0.000000,,2013-05-29 08:02:00,
2013-05-29 03:32:00,57.0,55.0,-100.00,WNW,299,3.0,6.0,92,0.00,,,0.00,0.000000,,2013-05-29 08:32:00,
2013-05-29 03:42:00,57.0,55.0,-100.00,WNW,299,3.0,6.0,92,0.00,,,0.00,0.000000,,2013-05-29 08:42:00,
2013-05-29 03:52:00,57.0,55.0,-100.00,WNW,299,3.0,6.0,92,0.00,,,0.00,0.000000,,2013-05-29 08:52:00,
2013-05-29 04:01:00,57.0,55.0,-100.00,WNW,299,3.0,6.0,92,0.00,,,0.00,0.000000,,2013-05-29 09:01:00,
2013-05-29 04:33:00,57.0,55.0,-100.00,SSW,203,5.0,9.0,92,0.00,,,0.00,0.000000,,2013-05-29 09:33:00,
2013-05-29 04:42:00,57.0,55.0,-100.00,SSW,203,5.0,9.0,92,0.00,,,0.00,0.000000,,2013-05-29 09:42:00,
2013-05-29 04:52:00,57.0,55.0,-100.00,SSW,203,5.0,9.0,92,0.00,,,0.00,0.000000,,2013-05-29 09:52:00,
2013-05-29 05:03:00,57.0,55.0,-100.00,SSW,203,5.0,9.0,92,0.00,,,0.00,0.000000,,2013-05-29 10:03:00,
2013-05-29 05:33:00,57.0,55.0,-100.00,South,187,3.0,7.0,92,0.00,,,0.00,0.000000,,2013-05-29 10:33:00,
2013-05-29 05:42:00,57.0,55.0,-100.00,South,187,3.0,7.0,92,0.00,,,0.00,0.000000,,2013-05-29 10:42:00,
2013-05-29 05:53:00,57.0,55.0,-100.00,South,187,3.0,7.0,92,0.00,,,0.00,0.000000,,2013-05-29 10:53:00,
2013-05-29 06:02:00,57.0,55.0,-100.00,South,187,3.0,7.0,92,0.00,,,0.00,0.000000,,2013-05-29 11:02:00,
2013-05-29 06:32:00,57.0,55.0,-100.00,ESE,117,3.0,5.0,93,0.00,,,0.00,8.000000,,2013-05-29 11:32:00,
2013-05-29 06:42:00,57.0,55.0,-100.00,ESE,117,3.0,5.0,93,0.00,,,0.00,8.000000,,2013-05-29 11:42:00,
2013-05-29 06:52:00,57.0,55.0,-100.00,ESE,117,3.0,5.0,93,0.00,,,0.00,8.000000,,2013-05-29 11:52:00,
2013-05-29 07:01:00,57.0,55.0,-100.00,ESE,117,3.0,5.0,93,0.00,,,0.00,8.000000,,2013-05-29 12:01:00,
2013-05-29 07:32:00,58.0,54.0,-100.00,North,4,2.0,6.0,88,0.00,,,0.00,52.000000,,2013-05-29 12:32:00,
2013-05-29 07:42:00,58.0,54.0,-100.00,North,4,2.0,6.0,88,0.00,,,0.00,52.000000,,2013-05-29 12:42:00,
2013-05-29 07:52:00,58.0,54.0,-100.00,North,4,2.0,6.0,88,0.00,,,0.00,52.000000,,2013-05-29 12:52:00,
2013-05-29 08:02:00,58.0,54.0,-100.00,North,4,2.0,6.0,88,0.00,,,0.00,52.000000,,2013-05-29 13:02:00,
2013-05-29 08:32:00,58.0,54.0,-100.00,SSE,148,6.0,9.0,87,0.00,,,0.00,109.000000,,2013-05-29 13:32:00,
2013-05-29 08:42:00,58.0,54.0,-100.00,SSE,148,6.0,9.0,87,0.00,,,0.00,109.000000,,2013-05-29 13:42:00,
2013-05-29 08:53:00,58.0,54.0,-100.00,SSE,148,6.0,9.0,87,0.00,,,0.00,109.000000,,2013-05-29 13:53:00,
2013-05-29 09:02:00,58.0,54.0,-100.00,SSE,148,6.0,9.0,87,0.00,,,0.00,109.000000,,2013-05-29 14:02:00,
2013-05-29 09:32:00,59.0,55.0,-100.00,South,169,9.0,14.0,86,0.00,,,0.00,110.000000,,2013-05-29 14:32:00,
2013-05-29 09:42:00,59.0,55.0,-100.00,South,169,9.0,14.0,86,0.00,,,0.00,110.000000,,2013-05-29 14:42:00,
2013-05-29 09:52:00,59.0,55.0,-100.00,South,169,9.0,14.0,86,0.00,,,0.00,110.000000,,2013-05-29 14:52:00,
2013-05-29 10:01:00,59.0,55.0,-100.00,South,169,9.0,14.0,86,0.00,,,0.00,110.000000,,2013-05-29 15:01:00,
2013-05-29 10:33:00,60.0,55.0,-100.00,South,180,11.0,16.0,83,0.00,,,0.00,165.000000,,2013-05-29 15:33:00,
2013-05-29 10:43:00,60.0,55.0,-100.00,South,180,11.0,16.0,83,0.00,,,0.00,165.000000,,2013-05-29 15:43:00,
2013-05-29 10:53:00,60.0,55.0,-100.00,South,180,11.0,16.0,83,0.00,,,0.00,165.000000,,2013-05-29 15:53:00,
2013-05-29 11:03:00,60.0,55.0,-100.00,South,180,11.0,16.0,83,0.00,,,0.00,165.000000,,2013-05-29 16:03:00,
2013-05-29 11:33:00,64.0,57.0,-100.00,East,92,6.0,13.0,77,0.00,,,0.00,441.000000,,2013-05-29 16:33:00,
2013-05-29 11:42:00,64.0,57.0,-100.00,East,92,6.0,13.0,77,0.00,,,0.00,441.000000,,2013-05-29 16:42:00,
2013-05-29 11:52:00,64.0,57.0,-100.00,East,92,6.0,13.0,77,0.00,,,0.00,441.000000,,2013-05-29 16:52:00,
2013-05-29 12:02:00,64.0,57.0,-100.00,East,92,6.0,13.0,77,0.00,,,0.00,441.000000,,2013-05-29 17:02:00,
2013-05-29 12:32:00,69.0,61.0,-100.00,ESE,108,5.0,14.0,75,0.00,,,0.00,882.000000,,2013-05-29 17:32:00,
2013-05-29 12:43:00,69.0,61.0,-100.00,ESE,108,5.0,14.0,75,0.00,,,0.00,882.000000,,2013-05-29 17:43:00,
2013-05-29 12:52:00,69.0,61.0,-100.00,ESE,108,5.0,14.0,75,0.00,,,0.00,882.000000,,2013-05-29 17:52:00,
2013-05-29 13:01:00,69.0,61.0,-100.00,ESE,108,5.0,14.0,75,0.00,,,0.00,882.000000,,2013-05-29 18:01:00,
2013-05-29 13:32:00,71.0,59.0,-100.00,East,95,8.0,12.0,67,0.00,,,0.00,707.000000,,2013-05-29 18:32:00,
2013-05-29 13:42:00,71.0,59.0,-100.00,East,95,8.0,12.0,67,0.00,,,0.00,707.000000,,2013-05-29 18:42:00,
2013-05-29 13:52:00,71.0,59.0,-100.00,East,95,8.0,12.0,67,0.00,,,0.00,707.000000,,2013-05-29 18:52:00,
2013-05-29 14:02:00,71.0,59.0,-100.00,East,95,8.0,12.0,67,0.00,,,0.00,707.000000,,2013-05-29 19:02:00,
2013-05-29 14:32:00,66.0,61.0,-100.00,NNW,341,9.0,20.0,84,0.16,,,0.16,275.000000,,2013-05-29 19:32:00,
2013-05-29 14:44:00,66.0,61.0,-100.00,NNW,341,9.0,20.0,84,0.16,,,0.16,275.000000,,2013-05-29 19:44:00,
2013-05-29 14:53:00,66.0,61.0,-100.00,NNW,341,9.0,20.0,84,0.16,,,0.16,275.000000,,2013-05-29 19:53:00,
2013-05-29 15:02:00,66.0,61.0,-100.00,NNW,341,9.0,20.0,84,0.16,,,0.16,275.000000,,2013-05-29 20:02:00,
2013-05-29 15:33:00,74.0,61.0,-100.00,ENE,68,8.0,16.0,65,0.00,,,0.16,983.000000,,2013-05-29 20:33:00,
2013-05-29 15:42:00,74.0,61.0,-100.00,ENE,68,8.0,16.0,65,0.00,,,0.16,983.000000,,2013-05-29 20:42:00,
2013-05-29 15:53:00,74.0,61.0,-100.00,ENE,68,8.0,16.0,65,0.00,,,0.16,983.000000,,2013-05-29 20:53:00,
2013-05-29 16:02:00,74.0,61.0,-100.00,ENE,68,8.0,16.0,65,0.00,,,0.16,983.000000,,2013-05-29 21:02:00,
2013-05-29 16:33:00,77.0,61.0,-100.00,East,101,10.0,19.0,57,0.00,,,0.16,853.000000,,2013-05-29 21:33:00,
2013-05-29 16:44:00,77.0,61.0,-100.00,East,101,10.0,19.0,57,0.00,,,0.16,853.000000,,2013-05-29 21:44:00,
2013-05-29 16:53:00,77.0,61.0,-100.00,East,101,10.0,19.0,57,0.00,,,0.16,853.000000,,2013-05-29 21:53:00,
2013-05-29 17:03:00,77.0,61.0,-100.00,East,101,10.0,19.0,57,0.00,,,0.16,853.000000,,2013-05-29 22:03:00,
2013-05-29 17:34:00,72.0,63.0,-100.00,SE,135,7.0,15.0,74,0.00,,,0.16,204.000000,,2013-05-29 22:34:00,
2013-05-29 17:42:00,72.0,63.0,-100.00,SE,135,7.0,15.0,74,0.00,,,0.16,204.000000,,2013-05-29 22:42:00,
2013-05-29 17:53:00,72.0,63.0,-100.00,SE,135,7.0,15.0,74,0.00,,,0.16,204.000000,,2013-05-29 22:53:00,
2013-05-29 18:02:00,72.0,63.0,-100.00,SE,135,7.0,15.0,74,0.00,,,0.16,204.000000,,2013-05-29 23:02:00,
2013-05-29 18:33:00,76.0,65.0,-100.00,SE,128,8.0,15.0,70,0.00,,,0.16,284.000000,,2013-05-29 23:33:00,
2013-05-29 18:42:00,76.0,65.0,-100.00,SE,128,8.0,15.0,70,0.00,,,0.16,284.000000,,2013-05-29 23:42:00,
2013-05-29 18:53:00,76.0,65.0,-100.00,SE,128,8.0,15.0,70,0.00,,,0.16,284.000000,,2013-05-29 23:53:00,
2013-05-29 19:01:00,76.0,65.0,-100.00,SE,128,8.0,15.0,70,0.00,,,0.16,284.000000,,2013-05-30 00:01:00,
2013-05-29 19:32:00,74.0,64.0,-100.00,SE,140,10.0,18.0,72,0.00,,,0.16,214.000000,,2013-05-30 00:32:00,
2013-05-29 19:42:00,74.0,64.0,-100.00,SE,140,10.0,18.0,72,0.00,,,0.16,214.000000,,2013-05-30 00:42:00,
2013-05-29 19:52:00,74.0,64.0,-100.00,SE,140,10.0,18.0,72,0.00,,,0.16,214.000000,,2013-05-30 00:52:00,
2013-05-29 20:01:00,74.0,64.0,-100.00,SE,140,10.0,18.0,72,0.00,,,0.16,214.000000,,2013-05-30 01:01:00,
2013-05-29 20:32:00,73.0,65.0,-100.00,SE,127,8.0,15.0,76,0.00,,,0.16,38.000000,,2013-05-30 01:32:00,
2013-05-29 20:42:00,73.0,65.0,-100.00,SE,127,8.0,15.0,76,0.00,,,0.16,38.000000,,2013-05-30 01:42:00,
2013-05-29 20:52:00,73.0,65.0,-100.00,SE,127,8.0,15.0,76,0.00,,,0.16,38.000000,,2013-05-30 01:52:00,
2013-05-29 21:01:00,73.0,65.0,-100.00,SE,127,8.0,15.0,76,0.00,,,0.16,38.000000,,2013-05-30 02:01:00,
2013-05-29 21:32:00,71.0,65.0,-100.00,SE,126,7.0,12.0,82,0.00,,,0.16,16.000000,,2013-05-30 02:32:00,
2013-05-29 21:42:00,71.0,65.0,-100.00,SE,126,7.0,12.0,82,0.00,,,0.16,16.000000,,2013-05-30 02:42:00,
2013-05-29 21:52:00,71.0,65.0,-100.00,SE,126,7.0,12.0,82,0.00,,,0.16,16.000000,,2013-05-30 02:52:00,
2013-05-29 22:02:00,71.0,65.0,-100.00,SE,126,7.0,12.0,82,0.00,,,0.16,16.000000,,2013-05-30 03:02:00,
2013-05-29 22:33:00,70.0,64.0,-100.00,SSE,154,10.0,17.0,82,0.00,,,0.16,0.000000,,2013-05-30 03:33:00,
2013-05-29 22:43:00,70.0,64.0,-100.00,SSE,154,10.0,17.0,82,0.00,,,0.16,0.000000,,2013-05-30 03:43:00,
2013-05-29 22:53:00,70.0,64.0,-100.00,SSE,154,10.0,17.0,82,0.00,,,0.16,0.000000,,2013-05-30 03:53:00,
2013-05-29 23:02:00,70.0,64.0,-100.00,SSE,154,10.0,17.0,82,0.00,,,0.16,0.000000,,2013-05-30 04:02:00,
2013-05-29 23:33:00,67.0,62.0,-100.00,SE,131,7.0,15.0,84,0.00,,,0.16,0.000000,,2013-05-30 04:33:00,
2013-05-29 23:42:00,67.0,62.0,-100.00,SE,131,7.0,15.0,84,0.00,,,0.16,0.000000,,2013-05-30 04:42:00,
2013-05-29 23:53:00,67.0,62.0,-100.00,SE,131,7.0,15.0,84,0.00,,,0.16,0.000000,,2013-05-30 04:53:00,